Find GPS IIA-15

NORAD ID: 23027 Int'l Des: 1994-016 Owner: AFSMC Country: US Constellation: GPS operational
MEOCIRCULAR

Current View

Loading 3D Globe...

About GPS IIA-15

Description loading...

Upcoming Passes

Passes for default location (London). Set your location on the main map for personalized predictions.

Altitude History

Loading altitude history...

Two-Line Element Set

1 23027U 94016A 26145.48626226 -.00000088 00000-0 00000+0 0 9994
2 23027 53.1285 274.8304 0034057 217.2945 149.8408 1.86674957232809
Epoch: May 25, 2026 • Age: 21 hours

Current Status

Altitude 21407.0 km
Velocity 3.79 km/s
Sub-Earth Point -40.61°S, 121.25°E
Launch Date Mar 10, 1994
Age 32.2 years
Type navigation

Technical Details

Classification Payload
Mass 860.00 kg
Dry Mass 860.00 kg
Total Mass 1881.00 kg
Length 2.40 m
Diameter 1.80 m
Span 5.30 m
Shape Box + 2 Pan
Manufacturer RWISB
Bus Type GPS
Phase Status In Orbit
Owner/State AFSMC/US

Most Searched